EW9800 Weather Reports


time (UTC)temp
C
wind
direction
speed
KPH
gust
KPH
rain 1hr
cm
rain 24hr
cm
rain mn
cm
humidity
%
barometer
mb
20260504082003 6 88 0.0 0.0 0.00 0.00 0.00 64 1013.5
20260504081512 6 88 0.0 0.0 0.00 0.00 0.00 64 1013.5
20260504081004 6 88 0.0 0.0 0.00 0.00 0.00 64 1013.5
20260504080506 6 88 0.0 1.6 0.00 0.00 0.00 64 1013.5
20260504050504 5 65 0.0 1.6 0.00 0.00 0.00 68 1013.1
20260504050011 5 65 0.0 1.6 0.00 0.00 0.00 68 1013.1
20260504045504 5 65 0.0 1.6 0.00 0.00 0.00 68 1013.2
20260504045003 5 65 0.0 1.6 0.00 0.00 0.00 67 1013.1
20260504044513 5 65 0.0 1.6 0.00 0.00 0.00 67 1013.1
20260504044005 6 65 0.0 1.6 0.00 0.00 0.00 67 1013.1
20260504043508 6 65 0.0 1.6 0.00 0.00 0.00 66 1013.1
20260504043019 6 65 0.0 0.0 0.00 0.00 0.00 66 1013.0
20260504042507 6 65 0.0 1.6 0.00 0.00 0.00 65 1013.0
20260504042007 6 65 0.0 3.2 0.00 0.00 0.00 65 1012.9
20260504041520 6 65 0.0 3.2 0.00 0.00 0.00 65 1012.9
20260504041008 6 65 0.0 3.2 0.00 0.00 0.00 64 1012.8
20260504040508 6 15 0.0 0.0 0.00 0.00 0.00 63 1012.8
20260504040024 6 355 0.0 0.0 0.00 0.00 0.00 62 1012.8
20260504035510 6 355 0.0 0.0 0.00 0.00 0.00 61 1012.8
20260504035011 6 355 0.0 0.0 0.00 0.00 0.00 61 1012.8
20260504034510 6 355 0.0 0.0 0.00 0.00 0.00 61 1012.7
20260504034007 6 355 0.0 0.0 0.00 0.00 0.00 60 1012.7
20260504033505 6 355 0.0 0.0 0.00 0.00 0.00 60 1012.8
20260504033012 6 355 0.0 0.0 0.00 0.00 0.00 59 1012.7
20260504032508 7 355 0.0 0.0 0.00 0.00 0.00 57 1012.8
20260504032009 7 355 0.0 0.0 0.00 0.00 0.00 57 1012.9
20260504031523 7 355 0.0 0.0 0.00 0.00 0.00 56 1012.8
20260504031008 7 355 0.0 0.0 0.00 0.00 0.00 56 1012.8
20260504030509 7 355 0.0 0.0 0.00 0.00 0.00 56 1012.8
20260504030023 7 355 0.0 0.0 0.00 0.00 0.00 55 1012.8
20260504025510 7 355 0.0 0.0 0.00 0.00 0.00 54 1012.8
20260504025009 7 355 0.0 0.0 0.00 0.00 0.00 54 1012.7
20260504024525 8 355 0.0 0.0 0.00 0.00 0.00 53 1012.7
20260504024008 8 355 0.0 0.0 0.00 0.00 0.00 52 1012.7
20260504023507 8 355 0.0 0.0 0.00 0.00 0.00 52 1012.7
20260504023004 8 355 0.0 0.0 0.00 0.00 0.00 51 1012.8
20260504022506 8 355 0.0 0.0 0.00 0.00 0.00 51 1012.7
20260504022004 8 355 0.0 0.0 0.00 0.00 0.00 50 1012.8
20260504021504 9 355 0.0 0.0 0.00 0.00 0.00 50 1012.8
20260504021002 9 355 0.0 0.0 0.00 0.00 0.00 48 1012.8
20260504020503 9 355 0.0 0.0 0.00 0.00 0.00 48 1012.8
20260504020006 10 355 0.0 0.0 0.00 0.00 0.00 48 1012.7
20260504015502 10 355 0.0 0.0 0.00 0.00 0.00 48 1012.7
20260504015004 10 355 0.0 0.0 0.00 0.00 0.00 46 1012.7
20260504014504 10 355 0.0 0.0 0.00 0.00 0.00 46 1012.7
20260504014002 10 355 0.0 0.0 0.00 0.00 0.00 47 1012.4
20260504013503 10 355 0.0 0.0 0.00 0.00 0.00 47 1012.4
20260504013006 10 355 0.0 0.0 0.00 0.00 0.00 46 1012.4
20260504012503 11 355 0.0 0.0 0.00 0.00 0.00 44 1012.4
20260504012003 11 355 0.0 0.0 0.00 0.00 0.00 41 1012.3
20260504011505 11 355 0.0 0.0 0.00 0.00 0.00 40 1012.3
20260504011004 11 355 0.0 0.0 0.00 0.00 0.00 39 1012.1
20260504010505 11 355 0.0 0.0 0.00 0.00 0.00 39 1012.0
20260504010004 11 355 0.0 0.0 0.00 0.00 0.00 38 1012.0
20260504005504 12 355 0.0 0.0 0.00 0.00 0.00 38 1012.0
20260504005002 12 355 0.0 0.0 0.00 0.00 0.00 39 1012.0
20260504004505 12 355 0.0 1.6 0.00 0.00 0.00 40 1011.9
20260504004002 12 355 0.0 1.6 0.00 0.00 0.00 37 1011.8
20260504003502 12 355 0.0 1.6 0.00 0.00 0.00 37 1011.8
20260504003003 12 355 0.0 4.8 0.00 0.00 0.00 37 1011.8
20260504002503 12 355 1.6 4.8 0.00 0.00 0.00 37 1011.7
20260504002003 12 88 0.0 3.2 0.00 0.00 0.00 36 1011.6
20260504001504 13 58 0.0 3.2 0.00 0.00 0.00 36 1011.6
20260504001003 13 47 0.0 3.2 0.00 0.00 0.00 36 1011.6
20260504000504 13 60 0.0 8.0 0.00 0.00 0.00 35 1011.5
20260504000024 13 353 1.6 8.0 0.00 0.00 0.00 35 1011.4
20260503235506 13 38 1.6 11.3 0.00 0.00 0.00 36 1011.3
20260503235003 13 11 1.6 11.3 0.00 0.00 0.00 34 1011.3
20260503234508 13 37 3.2 11.3 0.00 0.00 0.00 33 1011.2
20260503234004 13 262 0.0 6.4 0.00 0.00 0.00 34 1011.3
20260503233505 13 68 1.6 11.3 0.00 0.00 0.00 33 1011.2
20260503233008 13 355 3.2 11.3 0.00 0.00 0.00 32 1011.2
20260503232504 13 103 1.6 9.7 0.00 0.00 0.00 32 1011.1
20260503232003 14 330 0.0 4.8 0.00 0.00 0.00 33 1011.1
20260503231510 14 272 1.6 6.4 0.00 0.00 0.00 31 1011.0
20260503231003 14 95 0.0 6.4 0.00 0.00 0.00 31 1010.9
20260503230503 14 253 0.0 4.8 0.00 0.00 0.00 31 1011.0
20260503230009 14 266 0.0 6.4 0.00 0.00 0.00 33 1010.8
20260503225504 14 83 3.2 6.4 0.00 0.00 0.00 30 1010.9
20260503225007 14 16 0.0 6.4 0.00 0.00 0.00 31 1010.8
20260503224510 14 229 1.6 6.4 0.00 0.00 0.00 30 1010.8
20260503224004 14 106 0.0 11.3 0.00 0.00 0.00 29 1010.7
20260503223504 15 279 3.2 11.3 0.00 0.00 0.00 28 1010.7
20260503223010 14 124 1.6 14.5 0.00 0.00 0.00 29 1010.7
20260503222504 14 295 3.2 24.1 0.00 0.00 0.00 29 1010.7
20260503222005 15 204 6.4 24.1 0.00 0.00 0.00 28 1010.8
20260503221506 15 95 1.6 11.3 0.00 0.00 0.00 30 1010.7
20260503221004 15 131 1.6 12.9 0.00 0.00 0.00 29 1010.8
20260503220504 14 330 4.8 12.9 0.00 0.00 0.00 28 1010.8
20260503220008 15 278 3.2 14.5 0.00 0.00 0.00 28 1010.8
20260503215504 15 292 3.2 14.5 0.00 0.00 0.00 28 1010.7
20260503215005 15 116 3.2 14.5 0.00 0.00 0.00 27 1010.8
20260503214511 15 22 3.2 14.5 0.00 0.00 0.00 26 1010.7
20260503214008 15 345 3.2 16.1 0.00 0.00 0.00 28 1010.8
20260503213504 15 79 3.2 17.7 0.00 0.00 0.00 27 1010.6
20260503213012 15 194 6.4 17.7 0.00 0.00 0.00 28 1010.6
20260503212504 15 56 3.2 14.5 0.00 0.00 0.00 29 1010.6
20260503212004 15 15 1.6 14.5 0.00 0.00 0.00 28 1010.6
20260503211516 15 63 1.6 14.5 0.00 0.00 0.00 28 1010.6
20260503211003 15 64 3.2 17.7 0.00 0.00 0.00 27 1010.6
20260503210505 15 158 6.4 20.9 0.00 0.00 0.00 27 1010.6
20260503210013 15 326 3.2 20.9 0.00 0.00 0.00 27 1010.7
20260503205504 15 22 4.8 14.5 0.00 0.00 0.00 28 1010.5
20260503205007 15 113 3.2 14.5 0.00 0.00 0.00 29 1010.6
20260503204510 15 76 4.8 14.5 0.00 0.00 0.00 28 1010.8
20260503204005 14 185 3.2 12.9 0.00 0.00 0.00 29 1010.8
20260503203508 14 208 3.2 14.5 0.00 0.00 0.00 28 1010.7
20260503203025 15 307 1.6 14.5 0.00 0.00 0.00 27 1010.6
20260503202506 15 350 3.2 16.1 0.00 0.00 0.00 29 1010.7
20260503202006 15 349 4.8 16.1 0.00 0.00 0.00 27 1010.6
20260503201518 15 158 1.6 11.3 0.00 0.00 0.00 30 1010.6
20260503201004 14 324 3.2 14.5 0.00 0.00 0.00 28 1010.7
20260503200509 15 228 3.2 16.1 0.00 0.00 0.00 30 1010.8
20260503200016 15 209 4.8 16.1 0.00 0.00 0.00 28 1010.9
20260503195508 15 104 3.2 16.1 0.00 0.00 0.00 28 1011.0
20260503195006 15 106 6.4 16.1 0.00 0.00 0.00 26 1011.0
20260503194518 16 33 3.2 16.1 0.00 0.00 0.00 29 1010.9
20260503194002 15 19 1.6 12.9 0.00 0.00 0.00 29 1011.0
20260503193506 15 289 3.2 11.3 0.00 0.00 0.00 29 1011.0
20260503193018 15 251 3.2 12.9 0.00 0.00 0.00 28 1011.2
20260503192503 15 208 4.8 12.9 0.00 0.00 0.00 28 1011.4
20260503192006 15 333 3.2 12.9 0.00 0.00 0.00 29 1011.4
20260503191516 15 11 3.2 12.9 0.00 0.00 0.00 29 1011.4
20260503191006 15 262 4.8 12.9 0.00 0.00 0.00 30 1011.3
20260503190511 14 221 3.2 17.7 0.00 0.00 0.00 31 1011.4
20260503190018 13 175 6.4 17.7 0.00 0.00 0.00 30 1011.3
20260503185507 15 260 6.4 16.1 0.00 0.00 0.00 29 1011.3
20260503185006 15 41 4.8 11.3 0.00 0.00 0.00 30 1011.4
20260503184517 15 138 3.2 11.3 0.00 0.00 0.00 29 1011.4
20260503184007 15 8 3.2 14.5 0.00 0.00 0.00 33 1011.5
20260503183508 13 356 3.2 16.1 0.00 0.00 0.00 32 1011.4
20260503183027 13 333 4.8 16.1 0.00 0.00 0.00 32 1011.5
20260503182510 14 287 3.2 12.9 0.00 0.00 0.00 31 1011.5
20260503182003 15 116 1.6 17.7 0.00 0.00 0.00 32 1011.5
20260503181520 15 20 3.2 17.7 0.00 0.00 0.00 30 1011.5
20260503181007 15 85 4.8 14.5 0.00 0.00 0.00 31 1011.6
20260503180508 13 276 4.8 14.5 0.00 0.00 0.00 33 1011.6
20260503180029 13 256 3.2 11.3 0.00 0.00 0.00 32 1011.7
20260503175507 13 138 4.8 16.1 0.00 0.00 0.00 36 1011.7
20260503175006 13 320 1.6 19.3 0.00 0.00 0.00 33 1011.6
20260503174520 13 16 6.4 19.3 0.00 0.00 0.00 32 1011.7
20260503174009 12 17 4.8 16.1 0.00 0.00 0.00 33 1011.9
20260503173506 12 293 3.2 16.1 0.00 0.00 0.00 37 1011.8
20260503173016 12 225 4.8 16.1 0.00 0.00 0.00 37 1011.8
20260503172504 11 329 3.2 14.5 0.00 0.00 0.00 37 1011.9
20260503172003 11 284 4.8 20.9 0.00 0.00 0.00 37 1011.9
20260503171503 12 67 3.2 20.9 0.00 0.00 0.00 37 1012.0
20260503171002 12 317 3.2 14.5 0.00 0.00 0.00 38 1012.1
20260503170502 12 175 3.2 17.7 0.00 0.00 0.00 36 1012.2
20260503151003 11 300 1.6 14.5 0.00 0.00 0.00 33 1012.3
20260503150503 12 233 1.6 14.5 0.00 0.00 0.00 34 1012.3
20260503131004 8 321 3.2 14.5 0.00 0.00 0.00 49 1012.4
20260503130502 8 26 3.2 20.9 0.00 0.00 0.00 50 1012.5
20260503110508 5 312 3.2 12.9 0.00 0.00 0.00 59 1011.9